FW7886 Weather Reports


Display with metric or nautical units.
time (UTC)temp
F
wind
direction
speed
MPH
gust
MPH
rain 1hr
in
rain 24hr
in
rain mn
in
humidity
%
barometer
mb
20260902000752 83 309 3.0 5.0 0.00 0.00 0.00 90 1014.4
20260902000249 83 265 1.0 4.0 0.00 0.00 0.00 89 1014.5
20260901235748 83 312 1.0 4.0 0.00 0.00 0.00 89 1014.5
20260901235248 83 258 3.0 5.0 0.00 0.00 0.00 89 1014.6
20260901234748 83 345 3.0 5.0 0.00 0.00 0.00 88 1014.5
20260901234248 83 304 1.0 6.0 0.00 0.00 0.00 88 1014.5
20260901233749 83 176 1.0 6.0 0.00 0.00 0.00 88 1014.4
20260901233513 83 294 1.0 6.0 0.00 0.00 0.00 87 1014.5
20260901233009 83 296 1.0 6.0 0.00 0.00 0.00 88 1014.5
20260901232240 84 305 1.0 6.0 0.00 0.00 0.00 87 1014.4
20260901231740 84 110 3.0 6.0 0.00 0.00 0.00 88 1014.5
20260901231241 83 313 3.0 6.0 0.00 0.00 0.00 87 1014.5
20260901230741 83 290 3.0 8.0 0.00 0.00 0.00 87 1014.4
20260901230237 83 143 4.0 8.0 0.00 0.00 0.00 87 1014.5
20260901225739 83 223 4.0 8.0 0.00 0.00 0.00 88 1014.5
20260901225505 83 283 3.0 8.0 0.00 0.00 0.00 88 1014.7
20260901225000 83 219 3.0 6.0 0.00 0.00 0.00 87 1014.8
20260901224240 83 304 1.0 6.0 0.00 0.00 0.00 87 1014.8
20260901223737 83 188 1.0 5.0 0.00 0.00 0.00 88 1014.8
20260901223238 83 208 1.0 5.0 0.00 0.00 0.00 88 1014.8
20260901222739 83 304 1.0 5.0 0.00 0.00 0.00 88 1014.9
20260901222237 83 248 0.0 5.0 0.00 0.00 0.00 87 1014.9
20260901221738 83 184 1.0 4.0 0.00 0.00 0.00 88 1014.8
20260901221233 83 157 1.0 5.0 0.00 0.00 0.00 88 1014.9
20260901220956 83 236 0.0 5.0 0.00 0.00 0.00 88 1014.9
20260901220231 83 328 0.0 3.0 0.00 0.00 0.00 88 1014.9
20260901215955 82 328 1.0 3.0 0.00 0.00 0.00 89 1015.1
20260901215232 82 172 1.0 4.0 0.00 0.00 0.00 89 1015.1
20260901214734 82 315 1.0 5.0 0.00 0.00 0.00 89 1015.0
20260901214233 82 291 3.0 5.0 0.00 0.00 0.00 88 1015.1
20260901213732 82 283 3.0 5.0 0.00 0.00 0.00 89 1015.2
20260901213233 82 296 3.0 6.0 0.00 0.00 0.00 89 1015.2
20260901213207 81 319 4.0 8.0 0.00 0.00 0.00 89 1015.4
20260901212229 81 280 4.0 8.0 0.00 0.00 0.00 88 1015.2
20260901211728 81 280 3.0 6.0 0.00 0.00 0.00 89 1015.3
20260901211228 81 283 1.0 6.0 0.00 0.00 0.00 90 1015.3
20260901210728 81 273 1.0 6.0 0.00 0.00 0.00 89 1015.2
20260901210715 81 338 1.0 5.0 0.00 0.00 0.00 89 1015.2
20260901205728 81 243 1.0 4.0 0.00 0.00 0.00 89 1015.1
20260901205228 81 211 0.0 3.0 0.00 0.00 0.00 89 1015.1
20260901204729 80 260 1.0 4.0 0.00 0.00 0.00 89 1015.2
20260901204221 80 260 3.0 5.0 0.00 0.00 0.00 90 1015.5
20260901203720 80 347 1.0 5.0 0.00 0.00 0.00 90 1015.4
20260901203220 80 248 3.0 5.0 0.00 0.00 0.00 90 1015.5
20260901202720 80 248 3.0 5.0 0.00 0.00 0.00 90 1015.5
20260901202221 80 20 1.0 6.0 0.00 0.00 0.00 91 1015.6
20260901201719 80 285 1.0 6.0 0.00 0.00 0.00 91 1015.8
20260901201220 80 254 0.0 4.0 0.00 0.00 0.00 91 1015.8
20260901200722 80 182 1.0 3.0 0.00 0.00 0.00 91 1015.8
20260901200445 80 205 1.0 4.0 0.00 0.00 0.00 91 1015.9
20260901195713 79 174 1.0 4.0 0.00 0.00 0.00 91 1016.0
20260901195213 79 217 3.0 6.0 0.00 0.00 0.00 91 1016.0
20260901194714 79 315 3.0 6.0 0.00 0.00 0.00 91 1016.1
20260901194212 80 289 3.0 6.0 0.00 0.00 0.00 91 1016.2
20260901193713 80 310 3.0 4.0 0.00 0.00 0.00 91 1016.2
20260901193211 79 310 1.0 5.0 0.00 0.00 0.00 92 1016.1
20260901192711 79 194 1.0 6.0 0.00 0.00 0.00 91 1016.1
20260901192207 79 194 1.0 6.0 0.00 0.00 0.00 91 1016.1
20260901191709 80 286 1.0 6.0 0.00 0.00 0.00 91 1016.0
20260901191210 80 295 1.0 5.0 0.00 0.00 0.00 91 1015.9
20260901190707 80 148 3.0 8.0 0.00 0.00 0.00 90 1016.0
20260901190159 80 307 3.0 10.0 0.00 0.00 0.00 90 1016.1
20260901185913 80 288 3.0 10.0 0.00 0.00 0.00 90 1016.4
20260901185147 80 256 3.0 10.0 0.00 0.00 0.00 91 1016.2
20260901184641 81 310 3.0 10.0 0.00 0.00 0.00 92 1016.0
20260901184135 81 300 3.0 9.0 0.00 0.00 0.00 90 1016.2
20260901183629 81 299 1.0 8.0 0.00 0.00 0.00 90 1016.2
20260901183123 82 239 1.0 5.0 0.00 0.00 0.00 89 1016.1
20260901183109 82 163 1.0 5.0 0.00 0.00 0.00 89 1016.2
20260901182111 82 246 1.0 5.0 0.00 0.00 0.00 89 1016.2
20260901181605 82 307 1.0 5.0 0.00 0.00 0.00 89 1016.5
20260901181320 82 156 1.0 5.0 0.00 0.00 0.00 88 1016.6
20260901180553 83 172 1.0 5.0 0.00 0.00 0.00 87 1016.9
20260901180047 83 193 3.0 6.0 0.00 0.00 0.00 85 1017.0
20260901175541 84 249 3.0 8.0 0.00 0.00 0.00 84 1016.7
20260901175227 85 121 4.0 8.0 0.00 0.00 0.00 82 1016.5
20260901175117 85 246 3.0 8.0 0.00 0.00 0.00 82 1016.8
20260901174023 85 348 4.0 8.0 0.00 0.00 0.00 82 1016.4
20260901173742 85 291 4.0 10.0 0.00 0.00 0.00 82 1016.3
20260901173011 85 311 4.0 10.0 0.00 0.00 0.00 80 1016.2
20260901172505 85 16 4.0 8.0 0.00 0.00 0.00 81 1016.3
20260901171959 85 308 4.0 8.0 0.00 0.00 0.00 83 1016.4
20260901171714 84 305 5.0 9.0 0.00 0.00 0.00 84 1016.3
20260901170948 83 289 5.0 11.0 0.00 0.00 0.00 83 1016.5
20260901170441 83 58 5.0 11.0 0.00 0.00 0.00 85 1016.6
20260901165935 83 299 4.0 9.0 0.00 0.00 0.00 86 1016.5
20260901165430 82 59 4.0 9.0 0.00 0.00 0.00 85 1016.4
20260901164923 82 25 4.0 9.0 0.00 0.00 0.00 86 1016.5
20260901164417 82 0 5.0 10.0 0.00 0.00 0.00 87 1016.6
20260901164133 82 75 6.0 14.0 0.00 0.00 0.00 85 1016.6
20260901163405 83 317 8.0 14.0 0.00 0.00 0.00 84 1016.9
20260901162900 83 300 8.0 13.0 0.00 0.00 0.00 83 1016.9
20260901162353 84 25 9.0 16.0 0.00 0.00 0.00 82 1016.9
20260901161847 86 35 9.0 16.0 0.00 0.00 0.00 78 1016.9
20260901161341 88 305 8.0 14.0 0.00 0.00 0.00 81 1016.5
20260901160835 88 293 8.0 13.0 0.00 0.00 0.00 80 1016.4
20260901160328 87 288 6.0 13.0 0.00 0.00 0.00 83 1016.2
20260901155823 87 312 5.0 13.0 0.00 0.00 0.00 83 1016.2
20260901155317 87 303 5.0 10.0 0.00 0.00 0.00 85 1016.2
20260901154811 86 343 4.0 10.0 0.00 0.00 0.00 90 1016.2
20260901154305 85 302 4.0 10.0 0.00 0.00 0.00 94 1016.2
20260901154026 83 293 5.0 10.0 0.00 0.00 0.00 99 1016.2
20260901153253 83 306 5.0 10.0 0.00 0.00 0.00 100 1016.3
20260901153008 83 324 5.0 11.0 0.00 0.00 0.00 99 1016.3
20260901152247 82 329 6.0 11.0 0.00 0.00 0.00 100 1016.3
20260901151745 82 306 5.0 11.0 0.00 0.00 0.00 99 1016.3
20260901151245 82 247 4.0 9.0 0.00 0.00 0.00 100 1016.3
20260901150743 82 311 5.0 9.0 0.00 0.00 0.00 100 1016.2
20260901150509 81 299 6.0 10.0 0.00 0.00 0.00 100 1016.1
20260901145744 81 306 6.0 11.0 0.00 0.00 0.00 100 1016.1
20260901145242 80 320 6.0 13.0 0.00 0.00 0.00 100 1016.0
20260901144742 80 335 5.0 13.0 0.00 0.00 0.00 100 1016.0
20260901144242 80 320 6.0 13.0 0.00 0.00 0.00 100 1016.0
20260901143742 80 289 6.0 13.0 0.00 0.00 0.00 100 1016.1
20260901143242 81 252 4.0 11.0 0.00 0.00 0.00 100 1016.1
20260901142943 81 173 4.0 11.0 0.00 0.00 0.00 100 1016.0
20260901142831 81 315 4.0 9.0 0.00 0.00 0.00 100 1015.9
20260901141740 80 118 4.0 11.0 0.00 0.00 0.00 100 1016.1
20260901141241 80 223 5.0 10.0 0.00 0.00 0.00 100 1016.0
20260901140742 80 303 4.0 10.0 0.00 0.00 0.00 99 1015.9
20260901140236 81 296 4.0 10.0 0.00 0.00 0.00 99 1015.9
20260901135736 81 286 5.0 15.0 0.00 0.00 0.00 99 1015.9
20260901135236 82 313 5.0 15.0 0.00 0.00 0.00 98 1015.9
20260901134734 84 279 4.0 6.0 0.00 0.00 0.00 95 1015.9
20260901134234 86 279 3.0 6.0 0.00 0.00 0.00 88 1015.9
20260901133954 86 312 3.0 8.0 0.00 0.00 0.00 89 1015.9
20260901133235 85 303 3.0 8.0 0.00 0.00 0.00 89 1016.0
20260901132730 85 281 3.0 9.0 0.00 0.00 0.00 90 1016.0
20260901132230 85 284 3.0 9.0 0.00 0.00 0.00 89 1016.0
20260901131954 85 212 3.0 9.0 0.00 0.00 0.00 90 1016.0
20260901131228 84 285 3.0 9.0 0.00 0.00 0.00 91 1016.0
20260901130727 84 261 3.0 8.0 0.00 0.00 0.00 92 1015.9
20260901130228 83 125 3.0 9.0 0.00 0.00 0.00 93 1015.9
20260901125725 83 71 3.0 9.0 0.00 0.00 0.00 94 1015.8
20260901125226 83 226 1.0 5.0 0.00 0.00 0.00 94 1015.8
20260901124948 82 296 1.0 6.0 0.00 0.00 0.00 95 1015.8
20260901124220 81 144 1.0 6.0 0.00 0.00 0.00 97 1015.8
20260901123718 81 143 1.0 6.0 0.00 0.00 0.00 97 1015.7
20260901123707 80 147 1.0 6.0 0.00 0.00 0.00 97 1015.5
20260901122719 80 168 1.0 4.0 0.00 0.00 0.00 98 1015.4
20260901122220 80 191 1.0 6.0 0.00 0.00 0.00 98 1015.5
20260901121720 80 274 0.0 6.0 0.00 0.00 0.00 98 1015.4
20260901121220 80 170 0.0 4.0 0.00 0.00 0.00 98 1015.4
20260901120720 79 127 1.0 4.0 0.00 0.00 0.00 98 1015.3
20260901120221 79 260 1.0 4.0 0.00 0.00 0.00 98 1015.1
20260901115715 79 159 0.0 6.0 0.00 0.00 0.00 99 1015.2
20260901115215 79 151 1.0 6.0 0.00 0.00 0.00 98 1015.2
20260901114716 79 140 0.0 4.0 0.00 0.00 0.00 98 1015.0
20260901114215 79 184 0.0 3.0 0.00 0.00 0.00 98 1015.1
20260901113715 79 151 0.0 1.0 0.00 0.00 0.00 98 1015.1
20260901113216 79 186 0.0 3.0 0.00 0.00 0.00 98 1015.0
20260901112942 79 170 0.0 3.0 0.00 0.00 0.00 98 1015.0
20260901112216 79 194 0.0 3.0 0.00 0.00 0.00 98 1015.0
20260901111716 79 281 0.0 3.0 0.00 0.00 0.00 98 1014.9
20260901111209 79 182 0.0 3.0 0.00 0.00 0.00 98 1015.0
20260901110927 79 187 0.0 4.0 0.00 0.00 0.00 98 1014.9
20260901110157 79 145 0.0 4.0 0.00 0.00 0.00 99 1014.8
20260901105651 79 205 1.0 4.0 0.00 0.00 0.00 99 1014.5
20260901105146 79 171 0.0 4.0 0.00 0.00 0.00 99 1014.4
20260901104639 79 171 0.0 3.0 0.00 0.00 0.00 99 1014.3
20260901104133 78 191 0.0 1.0 0.00 0.00 0.00 99 1014.3
20260901103626 78 185 0.0 1.0 0.00 0.00 0.00 99 1014.2
20260901103119 78 169 0.0 3.0 0.00 0.00 0.00 99 1014.2
20260901103053 78 175 1.0 4.0 0.00 0.00 0.00 99 1014.3
20260901102107 78 189 1.0 4.0 0.00 0.00 0.00 99 1014.3
20260901101601 78 224 0.0 4.0 0.00 0.00 0.00 99 1014.3
20260901101055 78 179 0.0 3.0 0.00 0.00 0.00 99 1014.4
20260901100549 78 148 0.0 3.0 0.00 0.00 0.00 99 1014.4
20260901100044 78 177 0.0 1.0 0.00 0.00 0.00 99 1014.5
20260901095537 78 181 0.0 1.0 0.00 0.00 0.00 99 1014.4
20260901095300 78 186 0.0 3.0 0.00 0.00 0.00 99 1014.5
20260901094525 78 183 0.0 3.0 0.00 0.00 0.00 99 1014.5
20260901094020 78 150 0.0 1.0 0.00 0.00 0.00 99 1014.4
20260901093513 78 151 0.0 1.0 0.00 0.00 0.00 99 1014.5
20260901093007 78 181 0.0 1.0 0.00 0.00 0.00 99 1014.4
20260901092728 78 177 0.0 0.0 0.00 0.00 0.00 99 1014.4
20260901092223 78 177 0.0 0.0 0.00 0.00 0.00 99 1014.4
20260901091449 78 177 0.0 0.0 0.00 0.00 0.00 99 1014.4
20260901090943 78 177 0.0 3.0 0.00 0.00 0.00 99 1014.4
20260901090437 78 156 0.0 3.0 0.00 0.00 0.00 99 1014.4
20260901085931 78 180 0.0 1.0 0.00 0.00 0.00 99 1014.4
20260901085425 78 172 0.0 1.0 0.00 0.00 0.00 99 1014.3
20260901085145 78 153 0.0 1.0 0.00 0.00 0.00 99 1014.4
20260901084412 79 176 0.0 1.0 0.00 0.00 0.00 99 1014.6
20260901083907 79 182 0.0 3.0 0.00 0.00 0.00 99 1014.7
20260901083401 79 178 0.0 3.0 0.00 0.00 0.00 100 1014.6
20260901082855 79 189 0.0 3.0 0.00 0.00 0.00 100 1014.5
20260901082349 79 168 0.0 3.0 0.00 0.00 0.00 100 1014.5
20260901081843 79 171 0.0 5.0 0.00 0.00 0.00 100 1014.4
20260901081337 79 199 1.0 5.0 0.00 0.00 0.00 100 1014.4
20260901081101 79 189 0.0 3.0 0.00 0.00 0.00 100 1014.2
20260901080326 78 149 0.0 3.0 0.00 0.00 0.00 100 1014.1
20260901075819 78 175 0.0 1.0 0.00 0.00 0.00 100 1014.1
20260901075313 78 168 0.0 4.0 0.00 0.00 0.00 100 1014.1
20260901074807 78 207 0.0 4.0 0.00 0.00 0.00 100 1014.2
20260901074301 78 170 0.0 3.0 0.00 0.00 0.00 100 1014.4
20260901073755 78 149 0.0 3.0 0.00 0.00 0.00 100 1014.5
20260901073513 78 171 0.0 3.0 0.00 0.00 0.00 100 1014.5
20260901072743 78 176 0.0 3.0 0.00 0.00 0.00 100 1014.7
20260901072506 78 291 0.0 3.0 0.00 0.00 0.00 100 1014.8
20260901071731 78 160 0.0 0.0 0.00 0.00 0.00 100 1014.8
20260901071225 78 160 0.0 0.0 0.00 0.00 0.00 100 1014.8
20260901070939 78 160 0.0 1.0 0.00 0.00 0.00 100 1014.8
20260901070213 78 159 0.0 1.0 0.00 0.00 0.00 100 1014.8
20260901065708 78 158 0.0 0.0 0.00 0.00 0.00 100 1014.9
20260901065202 78 158 0.0 1.0 0.00 0.00 0.00 100 1014.9
20260901064655 78 187 0.0 3.0 0.00 0.00 0.00 100 1014.9
20260901064410 78 183 0.0 3.0 0.00 0.00 0.00 100 1015.0
20260901063643 78 181 0.0 3.0 0.00 0.00 0.00 100 1015.1
20260901063405 78 200 0.0 3.0 0.00 0.00 0.00 100 1015.2
20260901062631 78 156 0.0 1.0 0.00 0.00 0.00 100 1015.1
20260901062125 78 152 0.0 3.0 0.00 0.00 0.00 100 1015.1
20260901061619 78 153 0.0 4.0 0.00 0.00 0.00 100 1015.0
20260901061112 78 300 0.0 4.0 0.00 0.00 0.00 100 1015.1
20260901060606 78 180 0.0 1.0 0.00 0.00 0.00 100 1015.1
20260901060100 78 180 0.0 1.0 0.00 0.00 0.00 100 1015.1
20260901055555 78 169 0.0 3.0 0.00 0.00 0.00 100 1015.0
20260901055049 78 190 0.0 3.0 0.00 0.00 0.00 100 1015.0
20260901054543 78 198 0.0 3.0 0.00 0.00 0.00 100 1014.9
20260901054038 78 184 0.0 1.0 0.00 0.00 0.00 100 1015.2
20260901053532 78 154 0.0 3.0 0.00 0.00 0.00 100 1015.2
20260901053249 78 151 0.0 3.0 0.00 0.00 0.00 100 1015.2
20260901052755 78 168 0.0 1.0 0.00 0.00 0.00 100 1015.2
20260901052027 78 168 0.0 1.0 0.00 0.00 0.00 100 1015.1
20260901051524 78 168 0.0 1.0 0.00 0.00 0.00 100 1015.1
20260901051025 78 156 0.0 1.0 0.00 0.00 0.00 100 1015.2
20260901050519 78 177 0.0 1.0 0.00 0.00 0.00 100 1015.1
20260901050510 78 176 0.0 0.0 0.00 0.00 0.00 100 1015.2
20260901045519 78 176 1.0 5.0 0.00 0.00 0.00 100 1015.2
20260901045242 78 179 1.0 5.0 0.00 0.00 0.00 100 1015.3
20260901045010 78 186 0.0 3.0 0.00 0.00 0.00 100 1015.5
20260901044016 78 150 0.0 1.0 0.00 0.00 0.00 100 1015.4
20260901043738 78 150 0.0 1.0 0.00 0.00 0.00 100 1015.3
20260901043239 78 150 0.0 3.0 0.00 0.00 0.00 100 1015.3
20260901042512 78 150 0.0 3.0 0.00 0.00 0.00 100 1015.4
20260901042235 78 149 0.0 1.0 0.00 0.00 0.00 100 1015.4
20260901041513 78 165 0.0 1.0 0.00 0.00 0.00 100 1015.3
20260901041239 78 164 0.0 1.0 0.00 0.00 0.00 100 1015.4
20260901040515 78 164 0.0 1.0 0.00 0.00 0.00 100 1015.4
20260901040232 78 145 0.0 1.0 0.00 0.00 0.00 100 1015.4
20260901035506 78 180 0.0 1.0 0.00 0.00 0.00 100 1015.3
20260901034959 78 183 0.0 1.0 0.00 0.00 0.00 100 1015.4
20260901034454 78 174 0.0 3.0 0.00 0.00 0.00 100 1015.4
20260901033948 78 191 0.0 3.0 0.00 0.00 0.00 100 1015.3
20260901033700 78 151 0.0 3.0 0.00 0.00 0.00 100 1015.1
20260901032936 78 184 0.0 3.0 0.00 0.00 0.00 100 1014.9
20260901032430 78 177 0.0 1.0 0.00 0.00 0.00 100 1015.0
20260901031924 78 177 0.0 1.0 0.00 0.00 0.00 100 1014.9
20260901031418 78 183 0.0 1.0 0.00 0.00 0.00 100 1015.0
20260901031137 78 156 0.0 0.0 0.00 0.00 0.00 100 1015.0
20260901030628 78 191 0.0 0.0 0.00 0.00 0.00 100 1014.9
20260901025900 78 191 0.0 1.0 0.00 0.00 0.00 100 1015.0
20260901025354 78 191 0.0 1.0 0.00 0.00 0.00 100 1014.9
20260901024848 78 196 0.0 1.0 0.00 0.00 0.00 100 1015.0
20260901024342 78 160 0.0 3.0 0.00 0.00 0.00 100 1015.0
20260901024100 78 201 0.0 3.0 0.00 0.00 0.00 100 1014.9
20260901023331 78 186 0.0 1.0 0.00 0.00 0.00 100 1014.9
20260901022824 78 177 0.0 1.0 0.00 0.00 0.00 100 1014.8
20260901022626 78 151 0.0 1.0 0.00 0.00 0.00 100 1014.9
20260901022543 78 139 0.0 1.0 0.00 0.00 0.00 100 1015.0
20260901021307 78 178 0.0 1.0 0.00 0.00 0.00 100 1015.0
20260901020800 78 171 0.0 1.0 0.00 0.00 0.00 100 1015.0
20260901020254 78 106 0.0 1.0 0.00 0.00 0.00 100 1014.9
20260901015748 79 101 0.0 1.0 0.00 0.00 0.00 100 1014.7
20260901015242 79 158 0.0 1.0 0.00 0.00 0.00 100 1014.7
20260901014736 79 109 0.0 1.0 0.00 0.00 0.00 100 1014.6
20260901014453 79 86 0.0 1.0 0.00 0.00 0.00 99 1014.7
20260901013724 79 124 0.0 1.0 0.00 0.00 0.00 99 1014.6
20260901013217 79 91 0.0 1.0 0.00 0.00 0.00 99 1014.6
20260901012712 79 85 0.0 1.0 0.00 0.00 0.00 98 1014.5
20260901012206 79 133 0.0 3.0 0.00 0.00 0.00 98 1014.3
20260901011700 80 228 0.0 3.0 0.00 0.00 0.00 97 1014.3
20260901011419 80 219 0.0 3.0 0.00 0.00 0.00 97 1014.1
20260901010648 80 172 0.0 3.0 0.00 0.00 0.00 96 1014.1
20260901010148 81 180 0.0 3.0 0.00 0.00 0.00 94 1014.2
20260901005648 82 127 0.0 3.0 0.00 0.00 0.00 92 1014.2
20260901005148 82 199 0.0 3.0 0.00 0.00 0.00 90 1014.2
20260901004649 84 263 0.0 3.0 0.00 0.00 0.00 87 1014.3
20260901004410 84 182 0.0 3.0 0.00 0.00 0.00 85 1014.1
20260901003647 84 156 0.0 4.0 0.00 0.00 0.00 83 1014.1
20260901003145 85 173 1.0 4.0 0.00 0.00 0.00 83 1014.1
20260901002643 85 253 1.0 4.0 0.00 0.00 0.00 83 1014.2
20260901002143 85 289 1.0 4.0 0.00 0.00 0.00 82 1014.1
20260901001915 85 140 1.0 5.0 0.00 0.00 0.00 81 1014.2
20260901001145 85 265 1.0 5.0 0.00 0.00 0.00 81 1014.2